SCP
0 1 1 0 1 1 1 0 0 0 0 0 0 0 0 0 0 0 0 0 0 0 0 0 0 0 0 0 0 0 0 0 0 0 0 0 0 0
0 0 0 0 0 0 1 1 0 0 0 0 0 0 0 0 0 0 0 0 0 0 0 0 0 0 0 0 0 0 0 0 0 0 0 0 0 0
0 0 0 0 0 0 0 0 0 0 0 0 0 0 0 0 0 0 0 0 0 0 0 0 0 0 0 0 0 0 0 0 0 0 0 0 0 0
0 0 0 0 0 0 0 0 0 0 0 0 0 0 0 0 0 0 0 0 0 0 0 0 0 0 0 0 0 0 0 0 0 0 0 0 0 0
0 0 0 0 0 0 0 0 0 0 0 0 0 0 0 0 0 0 0 0 0 0 0 0 0 0 0 0 0 0 0 0 0 0 0 0 0 0
0 0 0 0 0 0 0 0 0 0 0 0 0 0 0 0 0 0 0 0 0 0 0 0 0 0 0 0 0 0 0 0 0 0 0 0 0 0
0 0 0 0 0 0 0 0 0 0 0 0 0 0 0 0 0 0 0 0 0 0 0 0 0 0 0 0 0 0 0 0 0 0 0 0 0 0
0 0 0 0 0 0 0 0 0 0 0 0 0 0 0 0 0 0 0 0 0 0 0 0 0 0 0 0 0 0 0 0 0 0 0 0 0 0
0 0 0 0 0 0 0 0 0 0 0 0 0 0 -0 0 0 0 0 0 0 0 0 0 0 0 0 0 0 0 0 0 0 0 0 0 0 0
0 0 0 0 0 0 0 0 0 0 0 0 0 -0 0 0 0 0 0 0 0 0 0 0 0 0 0 0 0 0 0 0 0 0 0 0 0 0
0 0 0 0 0 0 0 0 0 0 -0 -0 -0 -0 -0 0 0 0 0 0 0 0 0 0 0 0 0 0 0 0 0 0 0 0 0 0 0 0
0 0 0 0 0 0 0 0 0 0 -0 0 0 -0 -0 -0 0 0 0 0 0 0 0 0 0 0 0 0 0 0 0 0 0 0 0 0 0 0
0 0 0 0 0 0 0 0 0 0 0 -0 0 -0 -0 -0 0 0 0 0 0 0 0 0 0 0 0 0 0 0 0 0 0 0 0 0 0 0
0 0 0 -0 0 0 0 0 0 0 0 -0 0 0 0 0 0 0 0 0 0 0 0 0 0 0 0 0 0 0 0 0 0 0 0 0 0 0
0 0 0 0 0 0 -0 0 0 -0 -0 0 0 0 0 0 0 0 0 0 0 0 0 0 0 0 0 0 0 0 0 0 0 0 0 0 0 0
-0 0 0 0 0 0 0 0 -0 -0 -0 0 0 0 0 0 -0 0 0 0 0 0 0 0 0 0 0 0 0 0 0 0 0 0 0 0 0 0
0 0 0 0 0 0 0 -0 -0 -0 0 0 0 0 0 0 0 0 0 0 0 0 0 0 0 0 0 0 0 0 0 0 0 0 0 0 0 0
0 0 0 0 0 0 -0 -0 0 0 0 0 0 0 0 0 0 0 0 0 0 0 0 0 0 0 0 0 0 0 0 0 0 0 0 0 0 0
0 0 0 0 0 -0 -0 0 0 0 0 0 0 0 0 0 0 0 0 0 0 0 0 0 0 0 -0 0 0 0 0 0 0 0 0 0 0 0
0 0 0 0 -0 0 -0 -0 0 0 0 0 0 0 0 0 0 0 0 0 0 0 0 0 0 0 0 0 0 0 0 0 0 0 0 0 0 0
0 0 0 0 -0 0 0 -0 0 0 0 0 0 0 0 0 0 0 0 0 0 0 0 0 0 0 0 0 0 0 0 0 0 0 0 0 0 0
0 0 0 0 0 0 0 0 0 0 0 0 0 0 0 0 0 0 0 0 0 0 0 0 0 0 0 0 0 0 0 0 0 0 0 0 0 0
0 0 0 0 0 0 0 0 0 0 0 0 0 0 0 0 0 0 0 0 -0 0 0 0 0 0 0 0 0 0 0 0 0 0 0 0 0 0
Wind_Speed_500mb
59 61 65 73 79 76 73 66 60 59 49 40 39 39 41 36 36 33 27 31 28 26 26 33 22 27 36 29 25 22 25 24 22 21 20 20 20 23
64 71 61 65 73 75 64 66 57 58 57 45 42 42 42 43 39 32 29 29 24 27 24 18 15 27 25 21 19 20 20 21 21 21 21 20 22 23
61 59 71 60 63 63 62 57 53 59 56 48 42 34 42 45 38 28 29 22 25 19 23 8 13 21 17 19 18 19 23 23 23 22 21 21 21 21
59 59 61 59 51 54 52 52 45 51 39 32 34 39 38 31 27 23 18 11 11 8 8 12 14 19 17 21 23 25 27 22 21 21 22 21 22 22
48 53 55 43 46 50 53 43 41 45 34 25 30 37 29 19 9 10 10 13 14 12 11 13 12 15 19 23 27 27 26 25 23 24 25 27 28 26
48 51 51 40 42 50 48 41 38 30 25 26 29 33 25 15 3 10 15 17 16 17 15 6 20 19 17 18 22 29 32 30 31 28 30 32 31 29
39 30 35 33 33 34 31 30 22 17 23 27 33 24 16 7 3 7 19 22 5 8 7 14 17 14 17 23 30 31 37 36 38 38 38 43 44 40
35 34 28 24 28 22 15 12 16 24 30 25 20 17 6 1 6 10 11 3 15 3 7 10 8 8 9 17 30 34 35 36 40 46 52 59 65 59
41 36 34 29 16 16 15 19 25 21 16 13 16 18 9 6 8 9 2 1 6 7 6 7 8 13 21 34 38 27 29 35 44 53 46 45 42 41
43 37 32 29 25 22 24 24 21 23 25 29 35 29 20 14 9 1 5 6 3 2 5 7 18 20 32 39 25 23 36 43 41 37 40 36 34 30
45 40 36 36 36 32 32 41 45 47 45 45 31 25 28 24 15 12 8 7 6 11 8 18 31 36 24 8 9 31 35 31 27 31 33 33 35 33
52 52 51 50 51 48 47 48 49 36 31 33 25 19 25 26 23 24 28 14 7 7 12 26 26 33 16 4 24 21 29 20 21 26 27 30 27 26
61 61 62 61 59 55 50 44 37 27 23 22 17 13 18 19 18 18 18 20 16 12 20 27 24 26 25 30 31 30 28 14 18 22 30 22 9 7
76 70 66 61 56 50 44 32 33 31 27 22 17 14 16 13 12 10 15 17 11 14 23 22 18 22 26 25 32 36 19 14 15 23 27 12 8 6
77 72 64 54 47 35 37 36 31 27 25 21 15 15 11 7 8 15 18 5 10 21 23 26 24 21 12 12 27 30 22 10 13 18 25 10 11 16
55 56 56 53 42 36 38 37 33 28 22 19 18 13 8 12 17 19 23 27 15 13 17 17 16 8 5 14 23 23 16 13 15 14 22 12 12 17
67 62 55 47 45 37 33 32 31 24 21 12 4 10 14 15 18 24 27 32 34 30 24 12 8 7 7 22 31 32 21 17 16 14 19 17 17 21
61 59 54 47 42 33 29 27 26 24 20 12 10 15 16 18 20 24 29 33 31 22 19 16 13 9 6 20 37 33 21 19 24 21 24 24 21 25
60 57 54 49 42 42 39 28 25 22 22 27 26 23 19 21 26 26 26 27 21 14 12 11 14 17 20 22 31 44 25 23 25 31 38 34 34 32
47 45 43 46 47 40 41 39 35 31 27 26 23 22 24 26 26 23 24 24 20 17 16 14 16 19 26 30 35 44 32 20 20 35 36 39 40 36
44 42 31 29 34 35 33 33 33 32 33 27 26 28 30 25 23 21 20 22 20 18 21 20 21 22 22 26 35 44 44 29 33 37 42 38 36 41
41 39 40 34 20 17 19 25 29 31 32 34 33 28 27 27 26 22 21 22 21 20 19 19 20 21 23 31 35 44 53 54 36 26 36 37 38 47
40 41 40 40 41 30 18 24 30 31 34 33 33 34 32 31 28 24 21 21 20 17 16 18 22 24 26 30 32 39 52 61 62 59 56 49 47 45
Wind_Direction_500mb
269 265 260 257 258 258 257 260 262 266 265 254 238 249 257 263 233 238 256 267 283 281 294 287 290 314 320 317 315 313 313 312 314 306 294 287 276 259
267 264 268 263 261 259 257 258 258 259 262 258 245 252 250 235 232 243 257 279 275 309 285 279 305 323 326 323 323 323 329 327 319 312 303 297 291 273
261 269 265 270 271 264 254 255 254 261 259 252 253 237 224 224 228 246 267 291 306 294 276 295 313 332 339 350 344 334 327 315 308 302 303 302 292 284
264 268 274 269 273 260 249 247 246 263 260 255 234 216 208 210 234 253 283 287 303 283 290 306 302 335 343 333 336 333 329 312 308 306 303 304 303 288
262 268 271 266 259 250 242 231 250 252 263 251 220 201 200 218 253 314 324 308 275 269 288 291 304 323 313 324 325 328 318 325 313 314 308 304 299 292
263 260 259 255 246 239 229 231 235 247 232 233 210 198 192 169 237 331 309 263 264 276 265 309 310 300 314 290 309 310 309 296 302 303 302 304 305 302
250 239 246 244 236 219 206 230 243 221 213 191 176 174 168 152 25 314 283 282 256 183 256 275 275 295 301 307 297 300 309 289 296 295 291 297 296 290
227 197 199 186 181 173 220 196 190 196 183 173 141 123 97 325 294 296 269 14 177 36 358 18 317 285 296 305 305 311 311 288 287 292 294 293 290 283
177 167 158 148 146 156 159 173 157 157 171 160 128 94 74 347 270 211 195 335 343 270 288 334 303 310 307 301 305 293 281 285 291 294 294 297 294 284
144 142 140 133 133 141 139 135 130 128 114 91 87 75 60 74 95 14 332 269 120 302 286 321 323 303 301 296 283 273 309 307 301 294 296 294 288 288
127 126 127 127 124 120 124 117 102 96 91 89 92 77 56 48 51 20 44 68 97 345 320 329 330 332 328 326 310 299 301 300 306 309 305 301 292 279
116 113 112 114 113 109 104 102 104 105 106 95 81 68 42 40 42 26 27 39 21 335 332 334 332 336 330 235 338 334 337 327 325 314 315 313 290 264
111 111 106 102 99 96 93 93 97 96 92 92 86 76 35 42 31 28 26 15 13 7 339 329 322 334 334 335 352 353 345 345 340 342 349 342 358 175
96 94 93 92 88 78 74 83 93 95 97 89 72 59 48 59 31 73 4 1 353 327 328 334 330 335 335 341 347 347 5 4 360 356 1 10 49 141
90 89 89 87 85 95 94 91 96 97 96 90 89 90 88 64 17 3 12 3 317 311 312 317 315 330 341 347 338 349 359 27 4 357 7 38 82 141
88 89 88 83 82 88 90 87 83 80 87 90 78 66 23 359 344 13 9 18 9 0 344 330 307 335 69 12 0 8 15 16 13 8 22 63 92 118
86 86 87 88 81 81 88 92 83 82 81 76 68 51 31 39 18 3 3 -0 6 2 13 24 359 95 84 33 30 28 42 45 42 41 34 101 111 108
86 80 74 69 69 70 71 83 75 65 61 47 60 51 43 25 15 6 357 351 354 358 9 26 62 124 128 42 34 31 54 64 61 62 81 102 114 107
83 82 81 76 70 55 52 68 65 56 53 56 47 39 29 17 7 0 357 356 1 7 27 43 71 87 77 63 45 31 53 83 79 82 96 95 109 125
75 76 80 81 77 65 45 53 60 64 55 47 46 30 21 10 7 4 6 15 30 51 57 69 83 83 70 66 62 41 58 81 82 95 104 94 104 115
64 66 73 79 81 82 69 46 54 53 49 43 36 23 14 20 14 19 28 34 42 51 58 75 86 85 84 89 76 66 58 81 95 105 106 107 105 119
59 61 63 68 76 79 79 72 55 54 45 39 34 31 22 20 22 28 33 40 47 58 70 89 94 104 93 90 83 81 76 76 93 112 108 103 105 116
61 60 59 59 63 65 77 70 52 51 44 41 32 26 25 24 27 33 42 53 58 66 90 106 106 108 93 95 92 91 93 87 86 98 96 97 103 107
Wind_Speed_850mb
59 61 65 73 79 76 73 66 60 59 49 40 39 39 41 36 36 33 27 31 28 26 26 33 22 27 36 29 25 22 25 24 22 21 20 20 20 23
64 71 61 65 73 75 64 66 57 58 57 45 42 42 42 43 39 32 29 29 24 27 24 18 15 27 25 21 19 20 20 21 21 21 21 20 22 23
61 59 71 60 63 63 62 57 53 59 56 48 42 34 42 45 38 28 29 22 25 19 23 8 13 21 17 19 18 19 23 23 23 22 21 21 21 21
59 59 61 59 51 54 52 52 45 51 39 32 34 39 38 31 27 23 18 11 11 8 8 12 14 19 17 21 23 25 27 22 21 21 22 21 22 22
48 53 55 43 46 50 53 43 41 45 34 25 30 37 29 19 9 10 10 13 14 12 11 13 12 15 19 23 27 27 26 25 23 24 25 27 28 26
48 51 51 40 42 50 48 41 38 30 25 26 29 33 25 15 3 10 15 17 16 17 15 6 20 19 17 18 22 29 32 30 31 28 30 32 31 29
39 30 35 33 33 34 31 30 22 17 23 27 33 24 16 7 3 7 19 22 5 8 7 14 17 14 17 23 30 31 37 36 38 38 38 43 44 40
35 34 28 24 28 22 15 12 16 24 30 25 20 17 6 1 6 10 11 3 15 3 7 10 8 8 9 17 30 34 35 36 40 46 52 59 65 59
41 36 34 29 16 16 15 19 25 21 16 13 16 18 9 6 8 9 2 1 6 7 6 7 8 13 21 34 38 27 29 35 44 53 46 45 42 41
43 37 32 29 25 22 24 24 21 23 25 29 35 29 20 14 9 1 5 6 3 2 5 7 18 20 32 39 25 23 36 43 41 37 40 36 34 30
45 40 36 36 36 32 32 41 45 47 45 45 31 25 28 24 15 12 8 7 6 11 8 18 31 36 24 8 9 31 35 31 27 31 33 33 35 33
52 52 51 50 51 48 47 48 49 36 31 33 25 19 25 26 23 24 28 14 7 7 12 26 26 33 16 4 24 21 29 20 21 26 27 30 27 26
61 61 62 61 59 55 50 44 37 27 23 22 17 13 18 19 18 18 18 20 16 12 20 27 24 26 25 30 31 30 28 14 18 22 30 22 9 7
76 70 66 61 56 50 44 32 33 31 27 22 17 14 16 13 12 10 15 17 11 14 23 22 18 22 26 25 32 36 19 14 15 23 27 12 8 6
77 72 64 54 47 35 37 36 31 27 25 21 15 15 11 7 8 15 18 5 10 21 23 26 24 21 12 12 27 30 22 10 13 18 25 10 11 16
55 56 56 53 42 36 38 37 33 28 22 19 18 13 8 12 17 19 23 27 15 13 17 17 16 8 5 14 23 23 16 13 15 14 22 12 12 17
67 62 55 47 45 37 33 32 31 24 21 12 4 10 14 15 18 24 27 32 34 30 24 12 8 7 7 22 31 32 21 17 16 14 19 17 17 21
61 59 54 47 42 33 29 27 26 24 20 12 10 15 16 18 20 24 29 33 31 22 19 16 13 9 6 20 37 33 21 19 24 21 24 24 21 25
60 57 54 49 42 42 39 28 25 22 22 27 26 23 19 21 26 26 26 27 21 14 12 11 14 17 20 22 31 44 25 23 25 31 38 34 34 32
47 45 43 46 47 40 41 39 35 31 27 26 23 22 24 26 26 23 24 24 20 17 16 14 16 19 26 30 35 44 32 20 20 35 36 39 40 36
44 42 31 29 34 35 33 33 33 32 33 27 26 28 30 25 23 21 20 22 20 18 21 20 21 22 22 26 35 44 44 29 33 37 42 38 36 41
41 39 40 34 20 17 19 25 29 31 32 34 33 28 27 27 26 22 21 22 21 20 19 19 20 21 23 31 35 44 53 54 36 26 36 37 38 47
40 41 40 40 41 30 18 24 30 31 34 33 33 34 32 31 28 24 21 21 20 17 16 18 22 24 26 30 32 39 52 61 62 59 56 49 47 45
Wind_Direction_850mb
269 265 260 257 258 258 257 260 262 266 265 254 238 249 257 263 233 238 256 267 283 281 294 287 290 314 320 317 315 313 313 312 314 306 294 287 276 259
267 264 268 263 261 259 257 258 258 259 262 258 245 252 250 235 232 243 257 279 275 309 285 279 305 323 326 323 323 323 329 327 319 312 303 297 291 273
261 269 265 270 271 264 254 255 254 261 259 252 253 237 224 224 228 246 267 291 306 294 276 295 313 332 339 350 344 334 327 315 308 302 303 302 292 284
264 268 274 269 273 260 249 247 246 263 260 255 234 216 208 210 234 253 283 287 303 283 290 306 302 335 343 333 336 333 329 312 308 306 303 304 303 288
262 268 271 266 259 250 242 231 250 252 263 251 220 201 200 218 253 314 324 308 275 269 288 291 304 323 313 324 325 328 318 325 313 314 308 304 299 292
263 260 259 255 246 239 229 231 235 247 232 233 210 198 192 169 237 331 309 263 264 276 265 309 310 300 314 290 309 310 309 296 302 303 302 304 305 302
250 239 246 244 236 219 206 230 243 221 213 191 176 174 168 152 25 314 283 282 256 183 256 275 275 295 301 307 297 300 309 289 296 295 291 297 296 290
227 197 199 186 181 173 220 196 190 196 183 173 141 123 97 325 294 296 269 14 177 36 358 18 317 285 296 305 305 311 311 288 287 292 294 293 290 283
177 167 158 148 146 156 159 173 157 157 171 160 128 94 74 347 270 211 195 335 343 270 288 334 303 310 307 301 305 293 281 285 291 294 294 297 294 284
144 142 140 133 133 141 139 135 130 128 114 91 87 75 60 74 95 14 332 269 120 302 286 321 323 303 301 296 283 273 309 307 301 294 296 294 288 288
127 126 127 127 124 120 124 117 102 96 91 89 92 77 56 48 51 20 44 68 97 345 320 329 330 332 328 326 310 299 301 300 306 309 305 301 292 279
116 113 112 114 113 109 104 102 104 105 106 95 81 68 42 40 42 26 27 39 21 335 332 334 332 336 330 235 338 334 337 327 325 314 315 313 290 264
111 111 106 102 99 96 93 93 97 96 92 92 86 76 35 42 31 28 26 15 13 7 339 329 322 334 334 335 352 353 345 345 340 342 349 342 358 175
96 94 93 92 88 78 74 83 93 95 97 89 72 59 48 59 31 73 4 1 353 327 328 334 330 335 335 341 347 347 5 4 360 356 1 10 49 141
90 89 89 87 85 95 94 91 96 97 96 90 89 90 88 64 17 3 12 3 317 311 312 317 315 330 341 347 338 349 359 27 4 357 7 38 82 141
88 89 88 83 82 88 90 87 83 80 87 90 78 66 23 359 344 13 9 18 9 0 344 330 307 335 69 12 0 8 15 16 13 8 22 63 92 118
86 86 87 88 81 81 88 92 83 82 81 76 68 51 31 39 18 3 3 -0 6 2 13 24 359 95 84 33 30 28 42 45 42 41 34 101 111 108
86 80 74 69 69 70 71 83 75 65 61 47 60 51 43 25 15 6 357 351 354 358 9 26 62 124 128 42 34 31 54 64 61 62 81 102 114 107
83 82 81 76 70 55 52 68 65 56 53 56 47 39 29 17 7 0 357 356 1 7 27 43 71 87 77 63 45 31 53 83 79 82 96 95 109 125
75 76 80 81 77 65 45 53 60 64 55 47 46 30 21 10 7 4 6 15 30 51 57 69 83 83 70 66 62 41 58 81 82 95 104 94 104 115
64 66 73 79 81 82 69 46 54 53 49 43 36 23 14 20 14 19 28 34 42 51 58 75 86 85 84 89 76 66 58 81 95 105 106 107 105 119
59 61 63 68 76 79 79 72 55 54 45 39 34 31 22 20 22 28 33 40 47 58 70 89 94 104 93 90 83 81 76 76 93 112 108 103 105 116
61 60 59 59 63 65 77 70 52 51 44 41 32 26 25 24 27 33 42 53 58 66 90 106 106 108 93 95 92 91 93 87 86 98 96 97 103 107